Location: Unspecified
(48.2082°N, 0.0000°E)
Time: 18:29:33
(UTC+00:00)

Altair - Pass Details

Date: 21 June 2019
Orbit: 1501 x 1683 km, 47.2° (Epoch: 18 October)

Event Time Altitude Azimuth Distance (km) Brightness Sun altitude
Rises 03:33:05 0° 290° (WNW) 4,888 9.9 -4.2°
Reaches altitude 10° 03:36:57 10° 278° (W) 3,918 9.3 -3.7°
Maximum altitude 03:44:26 25° 229° (SW) 2,945 8.4 -2.8°
Drops below altitude 10° 03:51:59 10° 180° (S) 3,935 9.3 -1.8°
Sets 03:55:55 0° 168° (SSE) 4,913 9.9 -1.3°
